FW8395 Weather Reports


time (UTC)temp
C
wind
direction
speed
KPH
gust
KPH
rain 1hr
cm
rain 24hr
cm
rain mn
cm
humidity
%
barometer
mb
20260510061048 19 82 0.0 4.8 0.00 0.00 0.00 70 1013.4
20260510060544 19 81 3.2 4.8 0.00 0.00 0.00 66 1013.4
20260510060041 20 51 3.2 6.4 0.00 0.00 0.00 65 1013.5
20260510055537 20 70 3.2 4.8 0.00 0.00 0.00 65 1013.4
20260510055036 19 90 3.2 3.2 0.00 0.00 0.00 65 1013.6
20260510054531 19 172 0.0 0.0 0.00 0.00 0.00 65 1013.8
20260510054026 19 0 0.0 0.0 0.00 0.00 0.00 68 1013.7
20260510053521 19 0 0.0 1.6 0.00 0.00 0.00 68 1013.7
20260510053018 18 328 3.2 4.8 0.00 0.00 0.00 69 1013.4
20260510052514 18 162 0.0 0.0 0.00 0.00 0.00 69 1013.2
20260510052010 18 162 0.0 0.0 0.00 0.00 0.00 67 1013.3
20260510051506 18 162 0.0 0.0 0.00 0.00 0.00 67 1013.1
20260510051003 19 162 0.0 1.6 0.00 0.00 0.00 67 1013.2
20260510050500 19 340 0.0 0.0 0.00 0.00 0.00 67 1013.0
20260510045957 19 0 3.2 3.2 0.00 0.00 0.00 68 1013.3
20260510045454 19 246 0.0 0.0 0.00 0.00 0.00 68 1013.1
20260510044950 19 246 0.0 1.6 0.00 0.00 0.00 68 1013.2
20260510044447 18 188 0.0 0.0 0.00 0.00 0.00 70 1012.9
20260510043944 19 188 0.0 0.0 0.00 0.00 0.00 67 1012.7
20260510043440 19 103 0.0 0.0 0.00 0.00 0.00 64 1012.9
20260510042938 20 103 0.0 0.0 0.00 0.00 0.00 64 1012.5
20260510042434 20 103 0.0 0.0 0.00 0.00 0.00 64 1012.6
20260510041930 20 0 1.6 1.6 0.00 0.00 0.00 60 1012.6
20260510041427 20 0 0.0 3.2 0.00 0.00 0.00 61 1012.7
20260510040925 20 6 1.6 1.6 0.00 0.00 0.00 63 1012.4
20260510040421 20 8 0.0 3.2 0.00 0.00 0.00 63 1012.6
20260510035917 20 23 0.0 3.2 0.00 0.00 0.00 63 1012.7
20260510035414 20 83 0.0 1.6 0.00 0.00 0.00 64 1012.5
20260510034913 20 348 0.0 1.6 0.00 0.00 0.00 65 1012.5
20260510034413 20 0 0.0 0.0 0.00 0.00 0.00 67 1012.4
20260510033908 20 352 0.0 3.2 0.00 0.00 0.00 69 1012.4
20260510033405 20 325 0.0 3.2 0.00 0.00 0.00 69 1012.1
20260510032901 20 0 0.0 1.6 0.00 0.00 0.00 68 1012.0
20260510032358 20 346 1.6 1.6 0.00 0.00 0.00 71 1012.0
20260510031854 20 8 0.0 0.0 0.00 0.00 0.00 69 1011.9
20260510031349 20 8 0.0 1.6 0.00 0.00 0.00 68 1011.8
20260510030849 20 0 0.0 1.6 0.00 0.00 0.00 68 1011.5
20260510030346 21 90 1.6 4.8 0.00 0.00 0.00 68 1011.5
20260510025843 21 36 0.0 3.2 0.00 0.00 0.00 66 1011.4
20260510025341 21 60 0.0 4.8 0.00 0.00 0.00 66 1011.4
20260510024837 21 105 0.0 4.8 0.00 0.00 0.00 64 1011.3
20260510024334 21 111 1.6 3.2 0.00 0.00 0.00 63 1011.2
20260510023830 21 79 0.0 3.2 0.00 0.00 0.00 59 1011.1
20260510023327 21 352 0.0 1.6 0.00 0.00 0.00 57 1011.1
20260510022824 21 102 0.0 0.0 0.00 0.00 0.00 57 1011.0
20260510022323 21 102 0.0 0.0 0.00 0.00 0.00 56 1011.1
20260510021822 22 102 0.0 0.0 0.00 0.00 0.00 56 1011.0
20260510021321 22 102 0.0 0.0 0.00 0.00 0.00 55 1010.8
20260510020817 22 102 0.0 0.0 0.00 0.00 0.00 53 1010.8
20260510020312 22 331 0.0 0.0 0.00 0.00 0.00 52 1010.5
20260510015808 22 331 0.0 0.0 0.00 0.00 0.00 51 1010.6
20260510015306 22 0 0.0 0.0 0.00 0.00 0.00 49 1010.5
20260510014759 23 353 0.0 0.0 0.00 0.00 0.00 49 1010.5
20260510014256 22 353 0.0 0.0 0.00 0.00 0.00 48 1010.4
20260510013752 23 353 0.0 0.0 0.00 0.00 0.00 48 1010.5
20260510013248 23 8 0.0 1.6 0.00 0.00 0.00 46 1010.3
20260510012743 23 114 0.0 1.6 0.00 0.00 0.00 42 1010.4
20260510012238 23 188 0.0 0.0 0.00 0.00 0.00 42 1010.0
20260510011737 23 188 0.0 1.6 0.00 0.00 0.00 42 1010.2
20260510011234 24 180 0.0 1.6 0.00 0.00 0.00 41 1010.1
20260510010731 25 166 0.0 0.0 0.00 0.00 0.00 40 1009.9
20260510010227 25 166 0.0 1.6 0.00 0.00 0.00 39 1009.9
20260510005724 25 180 0.0 3.2 0.00 0.00 0.00 39 1010.0
20260510005221 25 187 1.6 3.2 0.00 0.00 0.00 39 1009.9
20260510004718 26 123 0.0 3.2 0.00 0.00 0.00 38 1010.2
20260510004216 26 98 0.0 3.2 0.00 0.00 0.00 36 1009.8
20260510003713 27 111 0.0 3.2 0.00 0.00 0.00 35 1009.6
20260510003209 27 166 0.0 3.2 0.00 0.00 0.00 37 1009.6
20260510002708 28 165 0.0 3.2 0.00 0.00 0.00 35 1009.7
20260510002206 28 195 0.0 3.2 0.00 0.00 0.00 35 1010.0
20260510001702 28 157 0.0 3.2 0.00 0.00 0.00 34 1009.9
20260510001201 28 180 1.6 4.8 0.00 0.00 0.00 35 1009.8
20260510000656 27 135 0.0 4.8 0.00 0.00 0.00 35 1009.8
20260510000154 28 127 3.2 4.8 0.00 0.00 0.00 33 1009.9
20260509235650 28 90 3.2 4.8 0.00 0.00 0.00 31 1010.0
20260509235147 28 109 3.2 8.0 0.00 0.00 0.00 30 1010.0
20260509234643 30 229 0.0 3.2 0.00 0.00 0.00 28 1009.8
20260509234141 28 139 3.2 3.2 0.00 0.00 0.00 29 1009.9
20260509233638 28 175 3.2 3.2 0.00 0.00 0.00 29 1009.8
20260509233136 28 234 1.6 6.4 0.00 0.00 0.00 26 1010.0
20260509232631 28 148 0.0 4.8 0.00 0.00 0.00 28 1010.1
20260509232128 29 95 3.2 4.8 0.00 0.00 0.00 27 1010.0
20260509231625 28 113 0.0 6.4 0.00 0.00 0.00 26 1010.0
20260509231123 28 114 4.8 6.4 0.00 0.00 0.00 26 1010.3
20260509230619 28 112 8.0 8.0 0.00 0.00 0.00 25 1010.2
20260509230117 29 90 1.6 8.0 0.00 0.00 0.00 25 1010.2
20260509225612 29 173 0.0 3.2 0.00 0.00 0.00 28 1010.0
20260509225108 29 67 3.2 8.0 0.00 0.00 0.00 23 1010.0
20260509224603 29 87 6.4 8.0 0.00 0.00 0.00 21 1010.3
20260509224101 30 90 3.2 4.8 0.00 0.00 0.00 23 1010.2
20260509223557 30 166 1.6 6.4 0.00 0.00 0.00 23 1010.3
20260509223055 30 237 3.2 4.8 0.00 0.00 0.00 22 1010.0
20260509222551 30 180 0.0 3.2 0.00 0.00 0.00 21 1010.3
20260509222047 30 258 0.0 6.4 0.00 0.00 0.00 21 1010.4
20260509221543 30 157 0.0 3.2 0.00 0.00 0.00 22 1010.2
20260509221039 30 102 4.8 6.4 0.00 0.00 0.00 23 1010.1
20260509220535 28 36 3.2 8.0 0.00 0.00 0.00 23 1010.2
20260509220032 29 254 3.2 8.0 0.00 0.00 0.00 30 1010.1
20260509215527 30 99 0.0 6.4 0.00 0.00 0.00 25 1010.2
20260509215024 30 174 0.0 3.2 0.00 0.00 0.00 27 1010.0
20260509214521 29 147 3.2 9.7 0.00 0.00 0.00 28 1010.1
20260509214018 28 22 4.8 4.8 0.00 0.00 0.00 22 1010.3
20260509213514 29 66 8.0 8.0 0.00 0.00 0.00 23 1010.4
20260509213011 29 221 0.0 6.4 0.00 0.00 0.00 25 1010.3
20260509212509 29 164 3.2 4.8 0.00 0.00 0.00 23 1010.2
20260509212005 28 150 0.0 8.0 0.00 0.00 0.00 20 1010.4
20260509211501 28 63 4.8 9.7 0.00 0.00 0.00 23 1010.3
20260509210957 29 195 1.6 6.4 0.00 0.00 0.00 23 1010.4
20260509210454 28 101 4.8 11.3 0.00 0.00 0.00 25 1010.6
20260509205950 28 174 4.8 6.4 0.00 0.00 0.00 23 1010.5
20260509205445 29 144 0.0 8.0 0.00 0.00 0.00 26 1010.6
20260509204941 30 283 1.6 3.2 0.00 0.00 0.00 27 1010.7
20260509204437 28 164 4.8 11.3 0.00 0.00 0.00 29 1010.9
20260509203934 29 111 11.3 11.3 0.00 0.00 0.00 23 1010.9
20260509203430 29 41 8.0 8.0 0.00 0.00 0.00 22 1010.9
20260509202927 28 110 6.4 8.0 0.00 0.00 0.00 22 1011.0
20260509202423 29 93 4.8 6.4 0.00 0.00 0.00 25 1011.2
20260509201919 28 68 6.4 6.4 0.00 0.00 0.00 28 1011.1
20260509201414 28 101 4.8 11.3 0.00 0.00 0.00 27 1011.3
20260509200911 28 243 3.2 4.8 0.00 0.00 0.00 26 1011.2
20260509200411 28 112 0.0 4.8 0.00 0.00 0.00 31 1011.4
20260509195908 28 74 8.0 8.0 0.00 0.00 0.00 32 1011.1
20260509195403 27 339 4.8 8.0 0.00 0.00 0.00 31 1011.3
20260509194903 28 70 6.4 6.4 0.00 0.00 0.00 34 1011.2
20260509194359 28 56 4.8 6.4 0.00 0.00 0.00 32 1011.2
20260509193856 27 71 4.8 9.7 0.00 0.00 0.00 31 1011.2
20260509193356 27 82 8.0 9.7 0.00 0.00 0.00 33 1011.4
20260509192852 27 106 0.0 9.7 0.00 0.00 0.00 34 1011.6
20260509192348 27 60 11.3 11.3 0.00 0.00 0.00 35 1011.2
20260509191844 27 160 1.6 9.7 0.00 0.00 0.00 40 1011.4
20260509191339 28 172 0.0 6.4 0.00 0.00 0.00 42 1011.4
20260509190836 28 21 4.8 8.0 0.00 0.00 0.00 40 1011.4
20260509190333 28 266 3.2 4.8 0.00 0.00 0.00 39 1011.4
20260509185830 27 167 4.8 6.4 0.00 0.00 0.00 43 1011.4
20260509185327 28 114 0.0 4.8 0.00 0.00 0.00 39 1011.5
20260509184824 28 257 0.0 4.8 0.00 0.00 0.00 42 1011.6
20260509184321 27 254 0.0 4.8 0.00 0.00 0.00 39 1011.7
20260509183818 27 204 3.2 9.7 0.00 0.00 0.00 40 1011.7
20260509183313 27 113 3.2 4.8 0.00 0.00 0.00 33 1012.0
20260509182809 27 160 1.6 4.8 0.00 0.00 0.00 33 1011.7
20260509182307 28 253 0.0 4.8 0.00 0.00 0.00 37 1011.7
20260509181803 27 110 4.8 6.4 0.00 0.00 0.00 31 1011.9
20260509181301 27 180 4.8 6.4 0.00 0.00 0.00 44 1011.7
20260509180758 26 0 0.0 4.8 0.00 0.00 0.00 34 1011.8
20260509180254 26 109 6.4 8.0 0.00 0.00 0.00 36 1011.8
20260509175750 26 97 6.4 8.0 0.00 0.00 0.00 37 1011.7
20260509175247 26 120 4.8 9.7 0.00 0.00 0.00 40 1011.9
20260509174743 27 90 3.2 6.4 0.00 0.00 0.00 41 1011.7
20260509174238 27 346 4.8 4.8 0.00 0.00 0.00 41 1012.1
20260509173735 26 0 0.0 8.0 0.00 0.00 0.00 41 1011.9
20260509173230 26 339 3.2 6.4 0.00 0.00 0.00 45 1011.8
20260509172727 26 154 0.0 9.7 0.00 0.00 0.00 49 1011.8
20260509172223 26 6 0.0 3.2 0.00 0.00 0.00 54 1011.9
20260509171718 26 319 3.2 6.4 0.00 0.00 0.00 53 1011.8
20260509171215 26 173 1.6 4.8 0.00 0.00 0.00 53 1011.9
20260509170712 25 243 4.8 9.7 0.00 0.00 0.00 54 1012.0
20260509170208 25 283 0.0 4.8 0.00 0.00 0.00 58 1012.3
20260509165707 25 283 1.6 6.4 0.00 0.00 0.00 58 1012.0
20260509165202 26 270 1.6 8.0 0.00 0.00 0.00 57 1012.1
20260509164658 25 14 4.8 6.4 0.00 0.00 0.00 62 1012.2
20260509164154 25 17 4.8 6.4 0.00 0.00 0.00 61 1012.3
20260509163652 24 254 4.8 8.0 0.00 0.00 0.00 62 1012.0
20260509163148 24 270 0.0 6.4 0.00 0.00 0.00 65 1012.4
20260509162645 25 188 0.0 4.8 0.00 0.00 0.00 63 1012.4
20260509162141 25 203 1.6 3.2 0.00 0.00 0.00 61 1012.4
20260509161637 23 180 3.2 4.8 0.00 0.00 0.00 64 1012.4
20260509161132 23 37 0.0 6.4 0.00 0.00 0.00 67 1012.6
20260509160628 23 25 4.8 8.0 0.00 0.00 0.00 65 1012.3
20260509160124 23 270 3.2 8.0 0.00 0.00 0.00 64 1012.3
20260509155620 23 9 6.4 6.4 0.00 0.00 0.00 63 1012.5
20260509155116 23 246 0.0 3.2 0.00 0.00 0.00 64 1012.6
20260509154612 23 188 3.2 4.8 0.00 0.00 0.00 64 1012.7
20260509154110 23 174 0.0 3.2 0.00 0.00 0.00 65 1012.6
20260509153607 23 200 1.6 4.8 0.00 0.00 0.00 66 1012.6
20260509153104 22 253 4.8 4.8 0.00 0.00 0.00 66 1012.6
20260509152559 22 170 3.2 4.8 0.00 0.00 0.00 68 1012.4
20260509152057 22 209 1.6 8.0 0.00 0.00 0.00 68 1012.5
20260509151553 22 204 3.2 3.2 0.00 0.00 0.00 67 1012.5
20260509151051 21 276 1.6 4.8 0.00 0.00 0.00 71 1012.5
20260509150548 21 90 0.0 4.8 0.00 0.00 0.00 70 1012.4
20260509150047 21 0 0.0 4.8 0.00 0.00 0.00 68 1012.8
20260509145542 21 180 3.2 3.2 0.00 0.00 0.00 71 1012.7
20260509145037 21 192 1.6 4.8 0.00 0.00 0.00 74 1012.8
20260509144534 20 173 1.6 6.4 0.00 0.00 0.00 74 1012.8
20260509144032 20 80 3.2 6.4 0.00 0.00 0.00 74 1012.9
20260509143528 20 80 4.8 6.4 0.00 0.00 0.00 73 1012.7
20260509143026 21 306 0.0 4.8 0.00 0.00 0.00 72 1012.7
20260509142521 20 0 0.0 4.8 0.00 0.00 0.00 74 1012.6
20260509142017 19 320 3.2 4.8 0.00 0.00 0.00 77 1012.7
20260509141514 19 45 3.2 4.8 0.00 0.00 0.00 77 1012.8
20260509141011 19 75 0.0 3.2 0.00 0.00 0.00 80 1012.7
20260509140507 18 294 0.0 4.8 0.00 0.00 0.00 83 1012.7
20260509140006 18 82 0.0 4.8 0.00 0.00 0.00 84 1012.8
20260509135502 17 15 0.0 3.2 0.00 0.00 0.00 87 1012.8
20260509134959 17 186 4.8 6.4 0.00 0.00 0.00 88 1012.6
20260509134457 17 200 1.6 1.6 0.00 0.00 0.00 89 1012.6
20260509133955 17 0 0.0 3.2 0.00 0.00 0.00 89 1012.6
20260509133451 16 99 0.0 0.0 0.00 0.00 0.00 90 1012.7
20260509132949 16 154 0.0 6.4 0.00 0.00 0.00 91 1012.7
20260509132447 16 158 3.2 8.0 0.00 0.00 0.00 90 1012.5
20260509131943 16 159 3.2 3.2 0.00 0.00 0.00 90 1012.5
20260509131441 16 131 3.2 4.8 0.00 0.00 0.00 89 1012.6
20260509130937 -17 47 4.8 4.8 0.00 0.00 0.00 91 1012.2
20260509130432 -17 90 0.0 4.8 0.00 0.00 0.00 91 1012.4
20260509125930 -17 188 0.0 0.0 0.00 0.00 0.00 91 1012.4
20260509125427 -17 180 0.0 0.0 0.00 0.00 0.00 91 1012.3
20260509124922 -17 180 0.0 1.6 0.00 0.00 0.00 91 1012.3
20260509124420 15 255 0.0 1.6 0.00 0.00 0.00 91 1012.0
20260509123917 -17 173 0.0 1.6 0.00 0.00 0.00 93 1011.8
20260509123414 -17 0 0.0 0.0 0.00 0.00 0.00 93 1011.8
20260509122910 -17 8 0.0 3.2 0.00 0.00 0.00 93 1011.6
20260509122407 -17 345 0.0 1.6 0.00 0.00 0.00 93 1011.8
20260509121904 -17 352 0.0 1.6 0.00 0.00 0.00 93 1011.6
20260509121401 -17 340 0.0 1.6 0.00 0.00 0.00 93 1011.6
20260509120859 -17 286 0.0 1.6 0.00 0.00 0.00 93 1011.5
20260509120356 -17 336 0.0 0.0 0.00 0.00 0.00 93 1011.3
20260509115854 -17 336 0.0 0.0 0.00 0.00 0.00 93 1011.1
20260509115351 -17 336 0.0 0.0 0.00 0.00 0.00 93 1011.3
20260509114849 -17 336 0.0 3.2 0.00 0.00 0.00 93 1011.1
20260509114348 -17 279 0.0 0.0 0.00 0.00 0.00 93 1011.2
20260509113847 13 270 0.0 1.6 0.00 0.00 0.00 93 1010.9
20260509113343 13 346 0.0 3.2 0.00 0.00 0.00 93 1011.3
20260509112840 13 328 3.2 3.2 0.00 0.00 0.00 93 1011.3
20260509112337 13 340 0.0 1.6 0.00 0.00 0.00 93 1010.9
20260509111834 14 0 0.0 1.6 0.00 0.00 0.00 93 1011.2
20260509111331 13 337 0.0 1.6 0.00 0.00 0.00 93 1011.0
20260509110829 13 262 0.0 0.0 0.00 0.00 0.00 93 1010.9
20260509110325 13 262 0.0 0.0 0.00 0.00 0.00 93 1011.1
20260509105823 14 262 0.0 1.6 0.00 0.00 0.00 93 1011.0
20260509105321 13 187 0.0 0.0 0.00 0.00 0.00 93 1010.8
20260509104817 -17 180 0.0 1.6 0.00 0.00 0.00 93 1011.0
20260509104314 -17 195 0.0 3.2 0.00 0.00 0.00 93 1011.0
20260509103812 -17 180 0.0 0.0 0.00 0.00 0.00 93 1010.9
20260509103309 -17 180 0.0 0.0 0.00 0.00 0.00 93 1011.1
20260509102808 -17 188 0.0 0.0 0.00 0.00 0.00 93 1010.8
20260509102306 -17 188 0.0 0.0 0.00 0.00 0.00 93 1011.0
20260509101800 -17 355 0.0 0.0 0.00 0.00 0.00 93 1010.9
20260509101256 -17 355 0.0 0.0 0.00 0.00 0.00 93 1010.8
20260509100754 14 355 0.0 0.0 0.00 0.00 0.00 93 1010.8
20260509100252 14 345 0.0 1.6 0.00 0.00 0.00 93 1010.7
20260509095748 14 180 0.0 0.0 0.00 0.00 0.00 93 1010.8
20260509095245 14 5 0.0 1.6 0.00 0.00 0.00 93 1010.7
20260509094742 -17 7 0.0 0.0 0.00 0.00 0.00 93 1010.8
20260509094239 14 355 3.2 3.2 0.00 0.00 0.00 93 1010.6
20260509093737 14 0 0.0 0.0 0.00 0.00 0.00 93 1010.8
20260509093234 -17 0 0.0 3.2 0.00 0.00 0.00 93 1010.6
20260509092732 14 0 0.0 0.0 0.00 0.00 0.00 93 1010.7
20260509092230 -17 0 0.0 0.0 0.00 0.00 0.00 93 1010.5
20260509091728 14 0 0.0 0.0 0.00 0.00 0.00 93 1010.7
20260509091223 14 0 0.0 0.0 0.00 0.00 0.00 93 1010.7
20260509090721 14 0 0.0 0.0 0.00 0.00 0.00 93 1010.8
20260509090218 14 0 0.0 0.0 0.00 0.00 0.00 93 1010.7
20260509085716 14 0 0.0 0.0 0.00 0.00 0.00 93 1010.7
20260509085213 14 0 0.0 0.0 0.00 0.00 0.00 93 1010.7
20260509084709 15 0 0.0 3.2 0.00 0.00 0.00 93 1010.7
20260509084206 14 270 0.0 0.0 0.00 0.00 0.00 93 1010.9
20260509083704 14 35 0.0 0.0 0.00 0.00 0.00 93 1011.0
20260509083200 14 35 0.0 0.0 0.00 0.00 0.00 93 1010.8
20260509082658 14 35 0.0 0.0 0.00 0.00 0.00 93 1010.9
20260509082154 15 35 0.0 1.6 0.00 0.00 0.00 93 1011.0
20260509081651 15 331 0.0 0.0 0.00 0.00 0.00 93 1011.1
20260509081148 -17 331 0.0 1.6 0.00 0.00 0.00 93 1011.1
20260509080646 15 105 0.0 0.0 0.00 0.00 0.00 93 1011.3
20260509080144 15 105 0.0 0.0 0.00 0.00 0.00 93 1011.1
20260509075642 15 180 0.0 0.0 0.00 0.00 0.00 93 1011.1
20260509075139 15 75 1.6 1.6 0.00 0.00 0.00 93 1011.0
20260509074636 15 340 0.0 0.0 0.00 0.00 0.00 92 1011.2
20260509074132 15 254 0.0 0.0 0.00 0.00 0.00 92 1011.4
20260509073629 15 0 0.0 0.0 0.00 0.00 0.00 92 1011.4
20260509073125 15 8 0.0 1.6 0.00 0.00 0.00 92 1011.6
20260509072623 15 66 0.0 1.6 0.00 0.00 0.00 93 1011.4
20260509072119 15 117 0.0 0.0 0.00 0.00 0.00 92 1011.4
20260509071616 15 0 0.0 0.0 0.00 0.00 0.00 93 1011.6
20260509071113 15 15 0.0 1.6 0.00 0.00 0.00 93 1011.7
20260509070611 15 246 0.0 0.0 0.00 0.00 0.00 92 1011.6
20260509070107 14 195 0.0 1.6 0.00 0.00 0.00 92 1011.7
20260509065602 14 246 0.0 3.2 0.00 0.00 0.00 92 1011.6
20260509065058 14 8 0.0 0.0 0.00 0.00 0.00 92 1011.6
20260509064556 14 257 0.0 3.2 0.00 0.00 0.00 92 1011.5
20260509064054 15 352 0.0 0.0 0.00 0.00 0.00 92 1011.4
20260509063549 15 352 0.0 0.0 0.00 0.00 0.00 92 1011.5
20260509063047 15 352 0.0 0.0 0.00 0.00 0.00 92 1011.5
20260509062544 15 99 0.0 0.0 0.00 0.00 0.00 92 1011.5
20260509062042 14 254 0.0 1.6 0.00 0.00 0.00 92 1011.5
20260509061538 14 261 0.0 0.0 0.00 0.00 0.00 92 1011.5